TimeCDT,TemperatureF,Dew PointF,Humidity,Sea Level PressureIn,VisibilityMPH,Wind Direction,Wind SpeedMPH,Gust SpeedMPH,PrecipitationIn,Events,Conditions,WindDirDegrees,DateUTC
12:13 AM,41.0,37.4,87,29.97,5.0,Calm,Calm,-,N/A,,Clear,0,2013-09-25 05:13:00
12:33 AM,39.2,37.4,93,29.97,10.0,Calm,Calm,-,N/A,,Clear,0,2013-09-25 05:33:00
12:53 AM,41.0,37.4,87,29.97,7.0,Calm,Calm,-,N/A,,Clear,0,2013-09-25 05:53:00
1:13 AM,39.2,37.4,93,29.98,7.0,Calm,Calm,-,N/A,,Clear,0,2013-09-25 06:13:00
1:33 AM,39.2,35.6,87,29.98,7.0,Calm,Calm,-,N/A,,Clear,0,2013-09-25 06:33:00
1:53 AM,39.2,35.6,87,29.98,10.0,Calm,Calm,-,N/A,,Clear,0,2013-09-25 06:53:00
2:13 AM,37.4,35.6,93,29.98,10.0,Calm,Calm,-,N/A,,Clear,0,2013-09-25 07:13:00
2:33 AM,37.4,35.6,93,29.98,7.0,Calm,Calm,-,N/A,,Clear,0,2013-09-25 07:33:00
2:53 AM,37.4,35.6,93,29.98,7.0,Calm,Calm,-,N/A,,Clear,0,2013-09-25 07:53:00
3:13 AM,37.4,33.8,87,29.98,10.0,Calm,Calm,-,N/A,,Clear,0,2013-09-25 08:13:00
3:33 AM,37.4,35.6,93,29.98,7.0,Calm,Calm,-,N/A,,Clear,0,2013-09-25 08:33:00
3:53 AM,35.6,33.8,93,29.99,10.0,Calm,Calm,-,N/A,,Clear,0,2013-09-25 08:53:00
4:13 AM,37.4,35.6,93,29.99,7.0,Calm,Calm,-,N/A,,Clear,0,2013-09-25 09:13:00
4:33 AM,33.8,30.2,87,29.99,7.0,Calm,Calm,-,N/A,,Clear,0,2013-09-25 09:33:00
4:53 AM,35.6,33.8,93,29.98,10.0,Calm,Calm,-,N/A,,Clear,0,2013-09-25 09:53:00
5:13 AM,35.6,33.8,93,29.99,7.0,Calm,Calm,-,N/A,,Clear,0,2013-09-25 10:13:00
5:33 AM,35.6,33.8,93,29.99,10.0,Calm,Calm,-,N/A,,Clear,0,2013-09-25 10:33:00
5:53 AM,35.6,30.2,81,29.99,10.0,Calm,Calm,-,N/A,,Clear,0,2013-09-25 10:53:00
6:13 AM,35.6,32.0,87,29.99,10.0,Calm,Calm,-,N/A,,Clear,0,2013-09-25 11:13:00
6:33 AM,33.8,30.2,87,29.99,10.0,Calm,Calm,-,N/A,,Clear,0,2013-09-25 11:33:00
6:53 AM,35.6,33.8,93,29.99,7.0,Calm,Calm,-,N/A,,Clear,0,2013-09-25 11:53:00
7:13 AM,35.6,32.0,87,30.00,10.0,Calm,Calm,-,N/A,,Clear,0,2013-09-25 12:13:00
7:33 AM,35.6,32.0,87,30.00,10.0,Calm,Calm,-,N/A,,Clear,0,2013-09-25 12:33:00
7:53 AM,37.4,33.8,87,30.00,4.0,Calm,Calm,-,N/A,,Clear,0,2013-09-25 12:53:00
8:13 AM,41.0,37.4,87,30.00,7.0,Calm,Calm,-,N/A,,Clear,0,2013-09-25 13:13:00
8:33 AM,44.6,41.0,87,30.00,10.0,Calm,Calm,-,N/A,,Clear,0,2013-09-25 13:33:00
8:53 AM,48.2,44.6,87,29.99,10.0,Calm,Calm,-,N/A,,Clear,0,2013-09-25 13:53:00
9:13 AM,53.6,48.2,82,30.00,10.0,Calm,Calm,-,N/A,,Clear,0,2013-09-25 14:13:00
9:33 AM,55.4,48.2,77,30.00,10.0,East,4.6,-,N/A,,Clear,80,2013-09-25 14:33:00
9:53 AM,57.2,50.0,77,30.00,10.0,East,4.6,-,N/A,,Clear,80,2013-09-25 14:53:00
10:13 AM,57.2,50.0,77,30.00,10.0,NE,4.6,-,N/A,,Clear,40,2013-09-25 15:13:00
10:33 AM,60.8,50.0,68,30.00,10.0,NE,4.6,-,N/A,,Clear,50,2013-09-25 15:33:00
10:53 AM,60.8,50.0,68,30.00,10.0,ENE,4.6,-,N/A,,Clear,60,2013-09-25 15:53:00
11:13 AM,60.8,50.0,68,30.00,10.0,ENE,5.8,-,N/A,,Clear,60,2013-09-25 16:13:00
11:33 AM,62.6,50.0,63,29.99,10.0,ENE,4.6,-,N/A,,Clear,70,2013-09-25 16:33:00
11:53 AM,60.8,48.2,63,30.00,10.0,ENE,6.9,-,N/A,,Clear,70,2013-09-25 16:53:00
12:13 PM,60.8,50.0,68,30.00,10.0,ENE,5.8,-,N/A,,Clear,70,2013-09-25 17:13:00
12:33 PM,60.8,50.0,68,29.99,10.0,ENE,6.9,-,N/A,,Clear,60,2013-09-25 17:33:00
12:53 PM,60.8,50.0,68,29.99,10.0,ENE,5.8,-,N/A,,Clear,70,2013-09-25 17:53:00
1:13 PM,62.6,50.0,63,29.98,10.0,ENE,4.6,-,N/A,,Clear,70,2013-09-25 18:13:00
1:33 PM,64.4,50.0,59,29.98,10.0,ENE,5.8,-,N/A,,Clear,70,2013-09-25 18:33:00
1:53 PM,62.6,48.2,59,-9999,10.0,ENE,8.1,-,N/A,,Clear,60,2013-09-25 18:53:00
2:13 PM,62.6,48.2,59,29.96,10.0,ENE,8.1,-,N/A,,Clear,60,2013-09-25 19:13:00
2:33 PM,60.8,48.2,63,29.96,10.0,ENE,8.1,-,N/A,,Clear,60,2013-09-25 19:33:00
2:53 PM,60.8,48.2,63,29.96,10.0,East,5.8,-,N/A,,Clear,80,2013-09-25 19:53:00
3:13 PM,60.8,48.2,63,29.96,10.0,East,5.8,-,N/A,,Clear,80,2013-09-25 20:13:00
3:33 PM,62.6,48.2,59,29.96,10.0,ENE,6.9,-,N/A,,Clear,70,2013-09-25 20:33:00
3:53 PM,62.6,48.2,59,29.95,10.0,ENE,8.1,-,N/A,,Clear,60,2013-09-25 20:53:00
4:13 PM,62.6,48.2,59,29.95,10.0,ENE,8.1,-,N/A,,Clear,60,2013-09-25 21:13:00
4:33 PM,62.6,48.2,59,29.95,10.0,ENE,4.6,-,N/A,,Clear,60,2013-09-25 21:33:00
4:53 PM,60.8,48.2,63,29.95,10.0,NE,6.9,-,N/A,,Clear,50,2013-09-25 21:53:00
5:13 PM,57.2,48.2,72,29.95,10.0,NE,4.6,-,N/A,,Clear,40,2013-09-25 22:13:00
5:33 PM,59.0,48.2,67,29.96,10.0,ENE,6.9,-,N/A,,Clear,70,2013-09-25 22:33:00
5:53 PM,57.2,48.2,72,29.95,10.0,NE,5.8,-,N/A,,Clear,50,2013-09-25 22:53:00
6:13 PM,53.6,48.2,82,29.94,10.0,NE,4.6,-,N/A,,Clear,50,2013-09-25 23:13:00
6:33 PM,53.6,48.2,82,29.94,10.0,NE,4.6,-,N/A,,Clear,50,2013-09-25 23:33:00
6:53 PM,51.8,48.2,88,29.94,4.0,NNE,4.6,-,N/A,,Scattered Clouds,30,2013-09-25 23:53:00
7:13 PM,51.8,48.2,88,29.95,1.0,ENE,4.6,-,N/A,,Overcast,60,2013-09-26 00:13:00
7:33 PM,50.0,46.4,87,29.95,0.5,NE,5.8,-,N/A,Fog,Fog,40,2013-09-26 00:33:00
7:53 PM,50.0,46.4,87,29.96,0.8,ENE,6.9,-,N/A,,Overcast,60,2013-09-26 00:53:00
8:13 PM,50.0,48.2,94,29.96,0.8,NE,8.1,-,N/A,,Overcast,40,2013-09-26 01:13:00
8:33 PM,50.0,46.4,87,29.96,0.8,NE,8.1,-,N/A,,Overcast,50,2013-09-26 01:33:00
8:53 PM,50.0,46.4,87,29.96,0.5,NE,5.8,-,N/A,Fog,Fog,40,2013-09-26 01:53:00
9:13 PM,50.0,46.4,87,29.97,0.5,NNE,3.5,-,N/A,Fog,Fog,30,2013-09-26 02:13:00
9:33 PM,50.0,46.4,87,29.97,0.5,NNE,5.8,-,N/A,Fog,Fog,30,2013-09-26 02:33:00
9:53 PM,50.0,46.4,87,29.97,1.2,NE,4.6,-,N/A,,Overcast,40,2013-09-26 02:53:00
10:13 PM,50.0,46.4,87,29.97,1.8,NNE,4.6,-,N/A,,Overcast,30,2013-09-26 03:13:00
10:33 PM,50.0,46.4,87,29.97,2.0,NNE,5.8,-,N/A,,Overcast,30,2013-09-26 03:33:00
10:53 PM,50.0,48.2,94,29.97,5.0,NE,4.6,-,N/A,,Overcast,40,2013-09-26 03:53:00
11:13 PM,51.8,48.2,88,29.97,4.0,NE,4.6,-,N/A,,Overcast,40,2013-09-26 04:13:00
11:33 PM,51.8,48.2,88,29.97,1.0,NE,4.6,-,N/A,,Overcast,40,2013-09-26 04:33:00
11:53 PM,51.8,48.2,88,29.98,1.0,NE,5.8,-,N/A,,Overcast,50,2013-09-26 04:53:00